Weather reports worldwide

Advertisment
Gourette, France (7775): temperature & dewpoint: 10.09.2019 05:00:00 - 16.09.2019 05:00:00 (CEST)Gourette, France (7775): wind speed & gusts: 10.09.2019 05:00:00 - 16.09.2019 05:00:00 (CEST)Gourette, France (7775): wind direction: 10.09.2019 05:00:00 - 16.09.2019 05:00:00 (CEST)Gourette, France (7775): reduced air pressure: 10.09.2019 05:00:00 - 16.09.2019 05:00:00 (CEST)Gourette, France (7775): visibility: 10.09.2019 05:00:00 - 16.09.2019 05:00:00 (CEST)Gourette, France (7775): precipitation: 10.09.2019 05:00:00 - 16.09.2019 05:00:00 (CEST)
Date & Time tt [°C] td [°C] ff [km/h] ff [kn] fx [km/h] fx [kn] dd ppp [hPa] vv [km] rr [mm]
16.09.2019 05:00:00 - - - - - - - - - -
16.09.2019 04:00:00 21,1 14,5 11 6 16 9 NNW 1020,4 - 0,0
16.09.2019 03:00:00 21,1 14,3 12 7 18 10 NNW 1020,7 - 0,0
16.09.2019 02:00:00 21,7 14,1 14 7 16 9 NNW 1020,9 - 0,0
16.09.2019 01:00:00 22,0 16,0 0 0 5 3 N 1020,8 - 0,0
16.09.2019 00:00:00 22,5 16,3 3 2 11 6 S 1021,1 - 0,0
15.09.2019 23:00:00 21,5 17,3 5 3 14 7 SSE 1021,4 - 0,0
15.09.2019 22:00:00 21,3 17,9 14 7 15 8 SW 1021,8 - 0,0
15.09.2019 21:00:00 21,4 18,0 10 6 13 7 SW 1021,8 - 0,0
15.09.2019 20:00:00 23,0 19,0 0 0 6 3 N 1021,6 - 0,0
15.09.2019 19:00:00 23,9 19,0 2 1 10 6 S 1021,8 - 0,0
15.09.2019 18:00:00 24,6 18,8 6 3 12 7 ESE 1022,0 - 0,0
15.09.2019 17:00:00 25,7 18,1 7 4 18 10 E 1021,9 - 0,0
15.09.2019 16:00:00 27,4 18,1 8 4 19 10 ESE 1022,2 - 0,0
15.09.2019 15:00:00 26,6 18,2 10 5 21 11 ESE 1022,7 - 0,0
15.09.2019 14:00:00 26,9 17,7 11 6 22 12 E 1023,0 20 0,0
15.09.2019 13:00:00 25,7 17,4 14 8 25 14 ENE 1023,5 - 0,0
15.09.2019 12:00:00 26,9 17,4 15 8 24 13 ENE 1024,1 - 0,0
15.09.2019 11:00:00 26,4 19,0 12 6 23 12 ENE 1024,5 - 0,0
15.09.2019 10:00:00 27,5 18,2 13 7 19 10 NE 1024,2 - 0,0
15.09.2019 09:00:00 25,3 15,0 8 4 15 8 N 1024,4 - 0,0
15.09.2019 08:00:00 22,8 11,5 10 6 14 7 NNW 1024,3 18 0,0
15.09.2019 07:00:00 22,6 10,1 5 3 13 7 N 1023,9 - 0,0
15.09.2019 06:00:00 23,4 10,1 10 6 16 8 N 1023,4 - 0,0
15.09.2019 05:00:00 23,2 10,3 12 7 20 11 NNW 1023,7 - 0,0
15.09.2019 04:00:00 22,3 10,4 15 8 20 11 NNW 1023,5 - 0,0
15.09.2019 03:00:00 22,3 10,8 16 9 19 10 NNW 1023,7 - 0,0
15.09.2019 02:00:00 22,3 10,1 14 8 19 10 NNW 1024,3 - 0,0
15.09.2019 01:00:00 24,1 10,0 8 5 14 8 NNW 1024,4 - 0,0
15.09.2019 00:00:00 23,2 10,3 13 7 17 9 N 1024,4 - 0,0
14.09.2019 23:00:00 23,0 10,4 14 8 20 11 NNW 1024,7 - 0,0
14.09.2019 22:00:00 23,6 11,9 8 4 13 7 NW 1024,5 - 0,0
14.09.2019 21:00:00 23,1 16,2 6 3 11 6 ENE 1024,5 - 0,0
14.09.2019 20:00:00 23,9 16,4 8 4 10 6 E 1024,2 - 0,0
14.09.2019 19:00:00 25,8 15,5 0 0 8 4 N 1023,9 - 0,0
14.09.2019 18:00:00 27,7 15,0 4 2 14 8 NNE 1024,2 - 0,0
14.09.2019 17:00:00 25,2 16,1 7 4 19 10 E 1024,6 20 0,0
14.09.2019 16:00:00 28,4 16,0 11 6 21 11 NE 1024,6 - 0,0
14.09.2019 15:00:00 26,8 16,1 16 9 31 17 ENE 1025,2 - 0,0
14.09.2019 14:00:00 28,2 15,8 22 12 31 17 NE 1025,6 20 0,0
14.09.2019 13:00:00 28,2 16,8 20 11 35 19 NE 1026,0 - 0,0
14.09.2019 12:00:00 28,0 19,8 29 15 41 22 NNE 1026,2 - 0,0
14.09.2019 11:00:00 30,4 16,0 24 13 32 18 NNE 1026,0 20 0,0
14.09.2019 10:00:00 29,9 11,9 13 7 19 10 NE 1026,3 - 0,0
14.09.2019 09:00:00 26,5 11,0 9 5 19 10 NNW 1026,5 - 0,0
14.09.2019 08:00:00 23,7 10,0 15 8 22 12 NNW 1026,3 - 0,0
14.09.2019 07:00:00 24,0 9,2 13 7 16 9 NW 1025,8 - 0,0
14.09.2019 06:00:00 23,5 10,2 7 4 19 11 N 1025,7 - 0,0
14.09.2019 05:00:00 23,4 9,4 16 9 22 12 NNW 1025,5 - 0,0
14.09.2019 04:00:00 22,6 9,7 16 9 21 11 NNW 1025,6 - 0,0
14.09.2019 03:00:00 22,5 10,3 14 7 18 10 NNW 1025,9 - 0,0
14.09.2019 02:00:00 22,0 14,9 14 7 22 12 NNW 1026,3 - 0,0
14.09.2019 01:00:00 21,7 12,8 18 10 21 11 NNW 1026,6 - 0,0
14.09.2019 00:00:00 21,5 11,8 14 8 22 12 NNW 1026,8 - 0,0
13.09.2019 23:00:00 23,3 10,4 17 9 22 12 NW 1026,7 - 0,0
13.09.2019 22:00:00 23,0 14,6 4 2 10 6 SSW 1026,7 - 0,0
13.09.2019 21:00:00 22,3 13,1 5 3 12 6 SSW 1026,7 - 0,0
13.09.2019 20:00:00 23,5 15,8 6 3 6 4 N 1026,3 - 0,0
13.09.2019 19:00:00 25,3 16,2 3 2 10 6 NNE 1026,3 - 0,0
13.09.2019 18:00:00 26,2 15,3 8 4 18 10 ENE 1026,4 - 0,0
13.09.2019 17:00:00 27,6 14,2 10 5 21 12 ENE 1026,6 - 0,0
13.09.2019 16:00:00 28,7 13,8 14 8 25 14 NE 1026,8 - 0,0
13.09.2019 15:00:00 28,0 14,3 16 9 25 13 NE 1027,2 - 0,0
13.09.2019 14:00:00 29,1 14,5 19 11 35 19 NE 1027,7 - 0,0
13.09.2019 13:00:00 29,3 15,4 24 13 42 23 NE 1027,7 - 0,0
13.09.2019 12:00:00 29,9 15,6 29 15 42 23 NNE 1027,9 - 0,0
13.09.2019 11:00:00 29,5 14,1 30 16 44 24 NNE 1027,6 - 0,0
13.09.2019 10:00:00 27,4 15,1 32 17 44 24 N 1027,6 - 0,0
13.09.2019 09:00:00 25,6 15,0 24 13 38 20 N 1027,7 - 0,0
13.09.2019 08:00:00 21,8 13,2 25 13 36 20 N 1027,4 - 0,0
13.09.2019 07:00:00 21,2 11,2 20 11 30 16 NNW 1027,4 - 0,0
13.09.2019 06:00:00 21,5 10,3 18 10 29 16 N 1027,2 - 0,0
13.09.2019 05:00:00 22,5 10,3 21 11 28 15 NNW 1026,9 20 0,0
13.09.2019 04:00:00 22,7 10,5 19 10 26 14 NNW 1027,0 - 0,0
13.09.2019 03:00:00 23,0 10,1 16 9 24 13 NNW 1027,2 - 0,0
13.09.2019 02:00:00 24,0 9,9 15 8 24 13 NNW 1027,1 - 0,0
13.09.2019 01:00:00 23,9 9,8 18 10 27 15 NNW 1027,3 - 0,0
13.09.2019 00:00:00 23,8 9,8 16 9 27 15 NNW 1027,2 - 0,0
12.09.2019 23:00:00 24,7 9,4 18 10 26 14 NNW 1027,0 - 0,0
12.09.2019 22:00:00 24,0 9,2 17 9 24 13 NNW 1026,7 - 0,0
12.09.2019 21:00:00 24,2 9,4 17 9 23 12 NNW 1026,6 - 0,0
12.09.2019 20:00:00 25,1 9,4 18 10 34 19 NNW 1026,2 - 0,0
12.09.2019 19:00:00 26,5 11,4 20 11 35 19 N 1026,0 - 0,0
12.09.2019 18:00:00 28,3 13,8 26 14 49 27 N 1025,9 - 0,0
12.09.2019 17:00:00 28,5 16,1 33 18 49 26 NNE 1025,7 30 0,0
12.09.2019 16:00:00 30,0 14,9 31 17 43 23 NNE 1026,0 - 0,0
12.09.2019 15:00:00 30,7 13,9 21 11 31 17 NNE 1026,2 - 0,0
12.09.2019 14:00:00 30,7 14,8 24 13 34 18 NNE 1026,7 30 0,0
12.09.2019 13:00:00 30,5 17,9 26 14 34 19 NNE 1026,8 - 0,0
12.09.2019 12:00:00 29,4 18,2 24 13 40 21 NNE 1027,2 - 0,0
12.09.2019 11:00:00 29,8 14,0 19 11 25 14 NNE 1026,8 - 0,0
12.09.2019 10:00:00 27,7 12,9 15 8 23 13 NE 1026,3 - 0,0
12.09.2019 09:00:00 24,9 8,4 8 4 12 7 N 1025,6 - 0,0
12.09.2019 08:00:00 20,4 7,7 8 4 19 11 NW 1024,9 - 0,0
12.09.2019 07:00:00 20,9 8,2 15 8 20 11 NW 1024,4 - 0,0
12.09.2019 06:00:00 21,3 9,8 13 7 18 10 NNW 1023,8 - 0,0
12.09.2019 05:00:00 20,2 13,2 15 8 24 13 NNW 1023,4 18 0,0
12.09.2019 04:00:00 20,4 13,6 20 11 26 14 NNW 1023,1 - 0,0
12.09.2019 03:00:00 20,8 15,6 23 12 29 16 NNW 1023,1 - 0,0
12.09.2019 02:00:00 20,7 14,8 16 8 19 10 NNW 1023,4 - 0,0
12.09.2019 01:00:00 20,7 15,0 5 3 11 6 W 1022,8 - 0,0
12.09.2019 00:00:00 21,2 15,7 7 4 14 7 NW 1022,2 - 0,0
11.09.2019 23:00:00 21,7 15,8 12 6 15 8 NNW 1022,2 - 0,0
11.09.2019 22:00:00 22,4 16,4 6 3 9 5 NW 1022,0 - 0,0
11.09.2019 21:00:00 21,9 16,4 6 3 9 5 WSW 1022,0 - 0,0
11.09.2019 20:00:00 22,5 16,3 3 1 11 6 SW 1021,3 - 0,0
11.09.2019 19:00:00 24,4 16,6 7 4 15 8 NNE 1020,7 - 0,0
11.09.2019 18:00:00 25,3 16,4 7 4 17 9 E 1020,3 - 0,0
11.09.2019 17:00:00 25,5 17,2 7 4 19 10 E 1019,6 30 0,0
11.09.2019 16:00:00 26,9 16,2 9 5 20 11 ESE 1019,4 - 0,0
11.09.2019 15:00:00 26,3 16,0 12 7 24 13 ESE 1019,5 - 0,0
11.09.2019 14:00:00 26,6 15,3 12 7 24 13 E 1019,9 30 0,0
11.09.2019 13:00:00 26,3 15,7 16 9 29 16 ENE 1019,7 - 0,0
11.09.2019 12:00:00 25,9 16,2 20 11 37 20 NE 1019,4 - 0,0
11.09.2019 11:00:00 28,0 16,9 23 13 32 18 NNE 1018,9 28 0,0
11.09.2019 10:00:00 26,3 16,5 22 12 35 19 N 1018,7 - 0,0
11.09.2019 09:00:00 24,3 17,3 23 12 31 17 N 1017,9 - 0,0
11.09.2019 08:00:00 21,0 14,9 17 9 29 15 NNW 1017,5 - 0,0
11.09.2019 07:00:00 20,0 14,6 21 11 28 15 NNW 1016,7 - 0,0
11.09.2019 06:00:00 19,8 14,4 17 9 23 12 NNW 1016,5 - 0,0
11.09.2019 05:00:00 19,9 15,1 19 10 23 13 NNW 1016,3 - 0,0
11.09.2019 04:00:00 20,3 14,4 17 9 23 12 NNW 1016,3 - 0,0
11.09.2019 03:00:00 20,4 15,2 18 10 23 12 NW 1015,9 - 0,0
11.09.2019 02:00:00 21,7 15,8 12 6 15 8 NW 1015,9 - 0,0
11.09.2019 01:00:00 21,9 17,1 9 5 13 7 WNW 1015,5 - 0,0
11.09.2019 00:00:00 21,7 17,7 8 4 11 6 WNW 1015,2 - 0,0
10.09.2019 23:00:00 21,7 17,3 4 2 18 10 W 1015,2 - 0,0
10.09.2019 22:00:00 22,5 18,5 14 8 27 15 ESE 1014,9 - 0,0
10.09.2019 21:00:00 21,5 16,0 5 3 20 11 NW 1014,4 - 0,0
10.09.2019 20:00:00 21,5 16,9 9 5 11 6 N 1013,7 - 0,0
10.09.2019 19:00:00 23,1 15,2 7 4 10 5 N 1013,1 - 0,0
10.09.2019 18:00:00 23,1 15,7 7 4 16 9 ENE 1013,0 - 0,0
10.09.2019 17:00:00 23,7 16,0 11 6 24 13 ENE 1012,9 - 0,0
10.09.2019 16:00:00 25,2 16,3 13 7 26 14 NE 1013,0 - 0,0
10.09.2019 15:00:00 24,5 15,7 13 7 27 15 ENE 1013,2 - 0,0
10.09.2019 14:00:00 24,7 15,9 13 7 24 13 E 1013,7 - 0,0
10.09.2019 13:00:00 23,5 15,5 15 8 26 14 ESE 1014,0 - 0,0
10.09.2019 12:00:00 22,6 15,9 16 9 26 14 E 1014,4 - 0,0
10.09.2019 11:00:00 22,4 15,3 13 7 24 13 ESE 1014,4 20 0,0
10.09.2019 10:00:00 23,8 14,8 13 7 24 13 ESE 1014,3 - 0,0
10.09.2019 09:00:00 23,2 13,9 14 8 23 12 E 1014,0 - 0,0
10.09.2019 08:00:00 21,5 13,4 16 9 29 15 E 1014,4 - 0,0
10.09.2019 07:00:00 20,4 13,1 4 2 15 8 N 1014,2 - 0,0
10.09.2019 06:00:00 20,1 13,1 6 3 13 7 N 1014,4 - 0,0
10.09.2019 05:00:00 20,6 13,1 7 4 19 10 NW 1014,6 15 0,0

tt = temperature
td = dewpoint
ff = wind speed
fx = gusts
dd = wind direction
ppp = reduced air pressure
vv = visibility
rr = precipitation

Next stations